User: anonymous   Login
Location: Unspecified
(0.0000°N, 0.0000°E)
Time: 06:48:04
(UTC+00:00)
Language:

OBJECT E - Orbit

View from above orbital plane
View from above orbital plane
View from above satellite
View from above satellite

Ground track
Ground track

The orbit is defined by the following mean orbital elements,

1 64532U          26145.57303576 +.00000000 +00000-0 +41372-3 0 00007
2 64532  97.4704 261.8175 0003439 230.2973 129.7962 15.25659099    05
Epoch (UTC): 25 May 2026 13:45:10
Eccentricity: 0.0003439
inclination: 97.4704°
perigee height: 486 km
apogee height: 491 km
right ascension of ascending node: 261.8175°
argument of perigee: 230.2973°
revolutions per day: 15.25659099
mean anomaly at epoch: 129.7962°

The dashed part of the orbit path shows where the satellite is in the earth's shadow,  

DLR